IRIDIUM 24 [-] (25105 NORAD) Tracking and Keplerian Element Data

This shows tracking and keplerian element data for the satellite.

Feedback or suggestion? Click here.




ElementValue
Catalog25105
NameIRIDIUM 24 [-]
Epoch Orbit7951
Epoch Day198.67031282
Epoch Year2018
RAAN68.4485
Inclination86.3904
Eccentricity0.0013432
Argument of Perigee117.5935
Mean Anonmoly242.663
Mean Motion14.39934479
Decay Rate8.8E-07
L11 25105U 97082B 18198.67031282 .00000088 00000-0 21634-4 0 9991
L22 25105 86.3904 68.4485 0013432 117.5935 242.6630 14.39934479 79512

Live tracking and technical data element details for IRIDIUM 24 [-] (NORAD 25105). IRIDIUM 24 [-] can be tracked NOW for your location showing map with azimuth and elevation plus other details from your city location.

Track the satellite on the map from your city or location and see movement details for azimuth, elevation, latitude, longitude, range, height, and movement on the map or in text.







IsCatalogInMostPopularTable: catalog: 25105, numindb: 29
Update: records affected: 1



GetName: 25105 IRIDIUM 24 [-]

Hit Count: updated at: Fri, 20 Jul 2018 07:05:43 GMT